Voltar ao catálogo

CZ-6A DEB

AtivoPO
NORAD 61291·DEBRIS·🇨🇳 China

Lançado Aug 6, 2024 de Taiyuan Satellite Launch Center

Loading…

Próximas Passagens (próximas 24 horas)

TLE

AtualizadoSource: Space-Track

Época: Sep 14, 2026, 17:51 UTC

1 61291U 24140TC  26257.74416859  .00003383  00000-0  15610-2 0  9998
2 61291  89.0210 267.3154 0082749 279.9915  79.1944 14.19028012105627

Acompanhe CZ-6A DEB em tempo real com AllMySat

Download on the App Store